Wind_Speed
14 12 9 11 10 5 7 10 9 10 11 9 8 8 8 7 7 8 8 8 9 4 6 4 1 1 5 8 8 11 15 17 14 10 9 6 6 9 9 6 3 3 3 6 15 19 18 18 16 12 11 16 18 20 22 20 17 17 19 18 19 18 17 18 17 17 19 19 19 21 20 18 19 21 21 22 23 23 22 20 19 21 22 21 19 19 19
12 10 10 14 13 6 6 10 9 10 11 9 9 10 6 5 6 6 9 11 9 5 4 3 4 5 8 9 7 9 11 13 12 12 13 13 13 13 13 13 9 6 2 0 5 10 10 11 12 7 7 11 14 14 16 17 14 13 14 14 16 18 18 19 17 15 17 19 20 22 21 18 18 20 21 22 23 24 24 22 20 20 21 21 19 17 18
9 10 10 12 12 8 8 9 8 11 13 10 9 9 6 7 8 5 6 9 5 5 4 4 7 8 10 10 5 6 8 9 10 12 12 13 15 16 17 17 14 12 10 7 6 7 5 5 8 7 7 10 10 8 9 13 13 13 14 14 15 16 16 17 17 16 17 19 19 20 20 19 19 20 22 23 23 23 23 23 22 21 23 21 18 17 21
7 9 10 10 9 9 10 11 9 8 9 9 7 7 6 6 7 6 6 6 2 4 4 2 5 7 8 8 5 5 6 7 9 10 9 10 13 15 18 20 19 15 14 13 11 9 7 5 7 9 9 10 9 6 7 10 11 13 16 18 18 17 17 17 17 17 18 19 18 19 20 19 18 19 21 23 24 24 23 23 22 22 24 21 17 18 21
6 8 10 10 10 8 7 6 5 4 6 7 7 7 6 5 5 5 4 1 2 2 3 3 3 7 6 5 6 6 7 7 8 7 6 7 12 15 17 20 19 16 13 13 11 9 7 5 5 6 8 9 9 8 7 8 10 13 15 17 18 18 18 18 17 17 16 16 18 20 20 19 18 19 20 21 23 24 24 24 23 23 24 21 18 19 20
7 11 10 9 9 7 3 2 3 6 8 8 7 7 8 7 3 2 2 3 4 2 3 2 3 5 6 6 8 8 8 9 9 7 5 7 13 16 17 17 14 12 12 10 8 7 5 4 4 3 4 4 5 6 6 7 9 10 12 14 15 16 17 16 15 15 15 15 18 20 19 19 20 20 20 21 22 23 24 24 23 24 24 22 19 19 20
6 8 9 8 6 3 2 2 4 5 7 8 8 7 7 8 7 6 4 3 6 4 4 4 6 5 8 11 11 11 11 11 11 8 6 10 17 20 19 17 12 10 11 11 8 6 4 3 2 1 2 2 2 3 4 6 7 8 10 11 13 14 14 13 12 13 13 15 18 18 18 19 20 20 19 19 20 22 23 23 22 23 24 23 22 21 21
6 6 6 7 5 4 4 6 4 2 5 7 7 5 5 7 7 5 5 5 7 7 3 5 9 8 11 15 12 11 11 10 10 10 9 13 18 19 19 17 14 12 12 11 10 8 5 2 1 1 2 3 4 4 5 5 5 5 6 7 9 11 11 11 12 13 13 14 16 16 17 18 19 20 20 19 21 23 24 23 23 23 23 22 23 23 22
6 7 6 6 7 7 7 5 1 2 4 6 5 4 5 8 8 7 5 4 6 5 2 6 9 6 7 11 9 8 9 8 9 11 11 13 16 17 17 16 14 12 11 11 10 9 7 5 3 2 2 3 5 5 5 4 4 4 6 6 6 8 9 10 11 12 11 12 13 14 15 17 18 19 20 21 23 25 25 23 23 22 22 22 24 23 21
5 6 7 6 6 7 3 2 4 4 5 5 4 2 3 8 8 5 3 1 3 2 2 8 9 3 2 4 4 5 8 8 10 12 13 14 14 15 15 13 13 12 12 13 14 13 12 11 8 4 2 2 3 3 2 2 2 3 4 4 4 6 7 6 7 9 10 10 12 13 14 16 16 18 20 21 23 25 24 22 20 20 21 23 23 21 18
6 7 7 5 6 6 1 3 1 4 5 5 5 3 0 3 4 3 2 1 2 2 5 9 6 2 1 1 2 5 8 10 12 13 14 15 14 15 15 13 12 14 15 16 17 17 15 14 12 9 5 3 3 4 5 4 3 3 3 1 1 3 4 5 5 7 9 10 11 12 14 15 14 15 18 19 21 24 26 23 19 20 22 22 21 19 19
7 7 7 5 4 1 4 4 1 4 5 4 6 5 0 2 3 4 4 1 2 3 6 6 3 3 3 4 5 5 7 11 14 10 11 14 15 14 15 16 14 14 15 17 17 17 16 15 14 13 11 11 12 13 12 11 10 10 9 8 7 5 4 3 3 4 6 8 9 9 10 11 12 14 16 15 14 18 25 27 22 20 21 21 20 19 20
8 8 8 6 2 3 5 3 3 6 6 5 5 3 0 0 2 3 4 2 3 5 4 4 5 6 10 12 11 8 8 11 11 6 11 17 17 15 16 18 18 17 18 17 16 15 16 17 17 17 16 17 18 18 17 16 17 16 14 13 11 10 9 8 6 5 3 1 2 3 4 6 7 10 11 11 9 9 17 23 23 21 20 20 20 19 19
7 7 7 6 1 4 5 4 6 6 5 4 1 2 4 3 3 1 1 1 4 6 5 6 10 12 14 16 15 12 11 11 9 9 14 16 16 15 16 17 18 19 19 17 16 15 16 18 18 18 18 19 21 20 20 21 19 18 17 17 16 14 12 11 11 10 9 7 6 5 5 6 6 7 8 8 5 3 7 13 19 21 20 19 19 18 18
6 7 7 6 2 3 3 2 3 5 4 1 3 6 7 3 4 2 1 1 5 7 8 11 14 15 14 13 12 10 10 9 11 15 17 14 13 14 15 14 15 16 16 17 17 17 17 18 19 20 20 21 20 20 20 19 18 19 20 20 19 17 16 15 14 13 11 10 9 9 10 10 9 7 6 5 2 1 2 5 10 13 14 15 16 16 16
5 5 3 1 1 1 2 2 2 4 2 1 4 10 8 5 5 1 2 3 6 10 13 14 16 14 12 10 9 9 9 8 10 13 15 14 14 14 14 13 13 13 15 17 17 16 16 17 19 20 21 22 22 21 19 17 15 17 19 19 19 20 19 19 18 17 16 14 13 13 12 11 10 10 8 6 5 5 4 2 1 2 3 6 8 9 8
5 5 2 2 5 4 2 1 5 5 3 4 8 11 7 6 2 5 5 6 10 14 15 16 16 15 14 13 12 11 10 10 12 15 16 16 15 14 14 14 14 14 15 16 16 15 17 18 19 18 19 21 23 23 22 20 18 17 17 17 18 19 19 19 19 17 16 16 16 16 15 13 13 13 13 11 10 10 9 8 7 5 3 2 1 1 1
6 6 5 3 2 1 0 5 8 6 5 7 9 7 5 5 4 5 5 8 13 16 17 17 16 16 18 19 17 15 15 17 18 18 16 14 14 15 14 14 14 15 16 15 15 15 16 18 18 18 19 20 22 22 21 20 21 21 20 19 19 19 18 18 17 16 15 14 15 15 14 13 13 14 14 13 13 14 14 14 13 11 9 8 7 5 4
5 2 1 2 5 4 2 5 8 7 7 9 7 4 5 6 5 6 8 12 15 18 19 20 19 19 20 22 21 20 20 22 21 16 13 12 13 15 15 14 14 15 15 16 16 16 16 16 16 17 17 17 17 17 16 17 20 23 24 23 23 21 20 19 17 16 16 15 15 14 13 13 13 13 13 12 11 11 12 12 13 12 11 10 9 7 6
7 3 3 3 3 2 3 4 9 12 12 9 4 2 4 6 7 9 11 14 17 19 19 20 22 21 19 18 19 19 19 21 20 16 14 14 14 14 14 15 15 15 15 15 15 16 16 15 15 15 15 14 14 14 14 15 17 19 20 21 22 22 21 21 19 17 16 16 16 15 14 14 14 13 13 13 12 11 10 10 10 11 10 10 9 8 7
7 6 4 6 5 3 8 7 11 16 13 7 5 4 5 7 9 11 12 14 17 19 18 19 20 20 17 15 17 18 18 18 18 16 15 15 15 14 15 15 16 16 16 16 16 16 15 15 15 15 15 14 14 13 13 12 12 13 14 16 17 17 17 18 17 15 14 14 15 15 15 14 14 14 14 13 13 12 11 10 10 10 9 9 9 8 7
5 1 3 3 2 4 6 7 13 17 13 9 9 9 9 8 10 12 14 14 14 16 18 19 20 20 18 17 17 18 18 17 16 15 14 14 13 13 14 15 15 16 15 16 16 16 16 15 15 15 15 14 13 13 13 13 13 13 14 13 12 12 12 13 13 12 11 12 13 14 14 13 14 14 14 13 12 12 11 11 10 10 9 9 9 8 7
1 5 6 6 7 8 8 11 16 17 14 12 13 12 10 10 11 12 14 14 13 14 17 19 19 19 19 19 19 19 18 17 16 14 14 13 12 12 13 14 15 15 15 15 16 16 15 15 15 15 15 14 13 13 14 14 14 14 14 12 12 11 11 11 11 11 10 11 11 12 12 13 14 14 13 12 12 12 12 11 10 10 9 10 9 9 9
3 4 4 8 12 10 11 14 17 16 14 13 13 12 11 11 12 12 13 13 14 15 15 16 17 17 18 19 18 16 15 15 14 14 14 14 14 14 14 14 14 14 14 14 15 15 15 15 15 15 15 14 14 14 13 12 13 14 13 12 13 13 12 12 11 10 10 12 12 13 13 13 13 13 13 13 13 13 12 12 11 10 10 10 10 10 10
4 6 7 11 13 12 13 15 15 14 14 13 13 13 12 12 13 13 14 15 17 17 16 16 16 17 17 17 15 14 13 12 11 11 11 11 12 13 13 14 14 13 13 14 14 14 15 15 14 13 13 13 13 12 13 12 10 10 11 12 12 11 11 12 13 12 11 10 11 10 10 11 11 10 10 11 13 13 13 13 12 11 10 10 10 10 10
2 6 12 15 13 13 15 15 13 13 14 14 14 14 13 14 14 14 14 16 18 18 17 16 16 16 15 14 14 13 11 10 9 9 10 11 11 9 10 12 13 12 12 13 13 13 13 13 12 12 12 13 12 10 10 11 10 9 10 12 13 12 10 9 10 11 10 9 9 8 7 7 7 6 9 12 13 14 13 12 12 12 12 11 11 10 10
5 6 12 15 14 12 11 12 14 15 14 15 16 15 15 15 15 15 15 16 16 17 16 15 16 16 15 13 12 11 10 8 8 9 11 13 12 10 10 12 12 11 12 13 13 13 13 12 11 11 10 11 11 10 10 9 8 7 6 8 11 13 11 9 8 7 6 6 6 7 6 6 6 5 8 10 10 9 8 8 10 12 13 14 13 11 10
8 7 7 10 14 14 11 13 17 17 15 16 16 16 16 17 16 16 16 16 17 18 18 15 15 16 16 13 11 10 9 8 8 10 11 12 11 10 11 11 11 11 12 12 12 13 13 13 12 10 8 8 10 9 8 7 7 6 5 5 7 7 5 6 7 7 6 5 6 8 7 5 5 5 6 5 5 5 6 5 6 8 11 13 12 10 10
10 9 7 9 17 19 16 17 18 17 17 17 17 17 17 17 16 17 18 18 18 19 19 17 16 15 14 13 12 10 10 11 11 12 11 10 10 9 9 9 10 11 11 11 11 10 9 8 8 8 8 8 6 5 5 6 6 6 4 4 5 4 1 2 2 2 4 5 6 9 8 5 4 4 4 3 4 4 5 4 3 5 9 10 10 8 8
10 9 8 14 20 20 19 19 19 18 19 19 18 17 17 17 17 18 19 18 18 18 18 18 17 14 13 12 11 11 11 13 13 11 9 8 9 8 7 6 8 9 9 9 8 6 4 3 2 4 6 8 7 5 3 5 6 7 4 2 3 5 5 4 4 3 1 4 6 7 7 5 4 4 4 4 4 4 4 4 4 5 8 9 9 7 6
10 10 11 18 22 19 19 20 18 17 18 19 18 17 17 16 16 17 18 19 19 17 17 19 18 16 14 12 12 14 14 14 13 11 9 9 9 8 7 7 9 9 9 9 8 5 3 2 2 1 3 5 7 8 5 3 6 7 5 3 4 7 7 6 4 3 2 3 4 4 5 5 6 5 5 5 5 5 5 5 5 5 6 8 7 6 5
11 10 10 17 23 20 18 19 18 17 17 18 18 18 17 15 16 16 17 18 18 17 17 19 19 17 16 15 16 16 15 14 12 11 10 9 9 8 8 9 8 6 6 7 7 5 3 3 4 4 2 2 4 6 4 2 5 6 5 2 3 7 8 6 5 3 3 3 3 3 4 5 5 6 7 6 6 6 5 5 6 7 7 8 7 6 6
14 13 13 15 23 23 20 19 18 18 18 17 17 18 18 16 16 17 17 18 18 17 18 18 18 18 18 17 16 15 14 13 12 11 11 11 10 9 8 7 6 5 5 5 4 4 4 3 4 4 4 2 2 2 4 3 3 4 4 1 1 4 5 5 6 5 4 5 5 4 5 6 6 7 7 6 6 7 7 6 7 8 8 8 7 7 8
17 19 19 18 20 23 23 23 21 19 19 18 16 16 17 16 17 18 19 19 20 19 18 18 18 18 18 17 15 14 13 13 11 11 10 9 8 8 7 5 4 5 6 7 6 4 3 3 2 1 3 5 4 5 5 3 3 1 1 1 2 4 5 5 6 5 4 5 6 5 5 6 6 6 6 5 6 8 8 8 8 9 9 9 10 10 11
14 18 19 16 15 16 20 24 24 21 19 20 19 18 18 18 19 20 20 20 21 20 20 20 19 18 17 17 15 13 12 11 11 10 9 7 6 6 4 4 5 5 6 6 4 2 3 2 3 3 2 5 5 6 5 1 1 2 1 4 5 5 5 5 5 5 5 5 5 5 5 6 7 8 8 7 7 8 9 8 9 9 9 10 11 13 13
15 19 19 17 15 14 15 21 23 21 20 21 20 20 20 20 21 23 23 22 21 22 22 21 20 18 17 16 15 13 12 10 10 9 8 7 6 5 4 4 5 5 3 3 1 3 4 4 5 5 2 3 3 5 6 5 2 2 5 7 6 5 5 4 5 5 5 5 5 5 6 7 7 7 8 8 8 9 9 9 9 9 9 9 10 10 10
17 18 17 17 16 17 17 20 20 20 22 22 21 22 23 23 24 25 24 23 22 23 22 21 20 18 17 15 14 12 11 10 9 8 7 6 5 4 4 4 4 3 2 3 3 3 6 7 7 5 1 1 1 4 6 6 2 4 6 6 5 4 4 5 5 5 4 5 6 6 6 7 7 6 6 7 7 8 8 8 8 9 9 9 9 9 10
15 14 16 17 16 15 18 21 19 18 22 24 22 23 25 26 27 28 26 23 23 23 21 19 19 18 16 14 13 12 11 10 9 8 7 6 4 4 5 5 4 5 6 7 6 6 10 10 7 2 1 1 2 3 5 5 1 4 5 6 5 5 5 5 5 5 5 5 6 6 5 6 7 7 6 7 7 8 9 9 9 9 10 10 10 10 10
15 13 17 20 17 15 19 24 22 19 22 26 26 24 24 25 29 31 29 24 23 23 22 19 19 18 16 14 13 13 11 10 9 8 7 5 4 4 5 7 8 9 10 10 9 10 11 8 3 1 2 5 3 2 2 2 4 6 6 6 5 5 5 5 5 5 5 5 6 6 6 6 7 7 7 7 8 8 8 8 8 8 9 10 10 10 10
16 16 18 21 20 18 21 25 22 19 21 27 29 26 24 25 28 29 28 24 22 23 21 19 19 18 16 14 13 12 11 9 8 7 6 4 4 4 6 7 9 10 11 11 12 12 9 4 3 2 4 6 4 2 2 4 7 8 6 6 5 4 5 5 5 5 5 6 6 6 6 6 7 7 7 8 9 8 7 6 6 8 9 10 10 9 9
18 19 19 21 22 21 23 26 24 20 22 27 29 28 28 29 28 27 26 24 23 22 20 20 19 18 15 14 13 12 11 9 8 6 5 3 2 3 5 7 10 11 10 10 12 12 7 3 6 4 1 5 4 2 6 7 8 8 6 4 4 4 5 5 5 5 6 6 6 6 6 7 7 7 7 8 9 9 9 8 7 7 9 9 8 7 6
21 21 21 22 23 23 26 28 27 23 22 24 26 29 31 30 28 27 26 26 25 23 20 19 18 17 15 14 13 11 10 8 6 6 6 5 4 5 6 9 12 12 10 9 8 7 5 3 6 7 6 5 0 6 10 10 9 9 5 3 4 4 4 4 4 5 5 5 5 6 6 6 7 7 8 8 8 8 8 8 8 8 9 9 8 5 4
21 22 23 25 27 26 25 26 27 26 24 23 24 28 30 29 28 28 28 27 26 24 21 19 18 17 16 15 13 11 10 8 7 7 7 7 8 8 8 10 13 13 12 10 4 3 3 2 4 3 3 3 3 8 11 10 9 7 3 2 3 3 3 3 3 4 5 5 5 6 6 6 6 7 7 7 8 7 7 7 8 9 8 8 7 5 4
20 22 24 25 27 26 24 24 26 28 28 26 25 27 29 29 29 29 28 27 26 24 22 21 20 19 17 15 13 12 10 8 8 7 6 7 8 8 10 12 11 10 9 6 4 3 4 10 8 6 6 3 5 9 10 8 7 4 1 1 2 2 2 2 3 3 4 4 4 5 5 5 6 6 7 7 7 7 6 6 6 6 4 3 4 4 3
20 23 24 25 25 25 24 25 26 29 31 31 29 29 29 28 28 27 27 27 27 25 24 23 22 20 18 15 13 11 9 8 7 7 7 6 6 8 13 15 12 10 7 7 9 4 8 13 11 8 6 4 9 10 9 6 4 2 1 1 1 1 1 2 2 2 3 4 4 4 4 4 5 5 6 7 7 7 7 7 6 7 6 5 4 4 4
21 23 24 24 23 22 22 23 26 28 31 32 31 28 27 26 26 26 26 26 26 25 23 22 21 19 17 15 13 12 11 10 9 8 9 11 10 10 12 12 10 8 4 9 9 6 10 12 10 6 4 8 11 10 6 4 2 1 1 2 1 1 1 1 2 2 2 3 3 3 4 4 4 5 5 6 6 6 7 7 7 7 8 7 7 7 6
25 26 25 24 23 22 22 24 27 29 31 32 31 28 26 26 26 26 26 25 24 23 22 21 20 18 16 14 13 12 11 11 10 9 10 12 13 13 11 9 8 7 6 9 9 8 9 8 7 8 9 11 11 9 6 3 1 2 2 2 1 1 0 1 1 1 2 2 2 3 4 4 3 3 4 5 5 5 5 5 6 7 7 7 8 8 8
29 30 27 25 25 26 27 28 29 29 30 31 30 28 27 27 26 26 26 25 23 21 20 19 18 17 15 13 12 11 11 11 11 10 9 9 10 12 12 11 11 10 7 7 8 8 6 6 9 12 12 11 11 10 5 1 2 2 2 2 2 2 1 0 0 0 1 2 2 2 3 3 3 2 3 4 4 5 4 5 7 8 7 5 5 6 7
30 31 27 25 27 29 30 30 28 26 27 28 28 27 27 27 26 25 24 23 22 20 19 19 17 16 14 12 10 10 11 11 10 9 9 9 8 9 10 11 12 10 8 6 4 4 5 9 13 14 13 10 9 7 4 2 3 3 2 1 1 2 2 0 1 2 2 1 2 2 1 2 3 4 3 2 3 3 3 4 5 8 7 5 4 5 6
25 27 27 26 27 29 29 28 26 25 26 27 28 28 27 27 25 24 23 22 20 19 17 16 15 14 12 9 8 10 12 11 9 9 10 11 10 9 8 8 9 11 12 9 5 4 6 12 15 14 10 7 5 5 4 4 3 3 2 1 1 2 3 0 3 2 3 2 1 2 1 2 3 3 3 2 3 4 4 3 4 6 6 6 5 5 5
23 26 28 29 29 29 28 27 25 25 25 26 27 27 25 24 23 22 21 20 19 17 15 13 12 10 9 8 11 13 13 12 12 12 12 12 11 10 8 9 13 15 15 11 8 6 7 12 14 12 8 5 3 3 5 5 4 2 3 4 3 2 2 2 3 2 2 3 3 2 2 2 1 2 2 2 3 4 5 4 3 4 5 5 5 5 5
22 24 27 28 28 28 27 26 25 25 25 26 26 25 22 20 20 20 19 18 17 16 14 13 12 10 10 11 13 14 14 13 13 14 14 14 13 11 8 11 15 16 14 11 8 5 5 7 10 10 8 6 3 2 3 5 5 2 3 6 6 3 3 4 3 1 1 1 1 1 1 2 1 1 2 2 3 3 4 3 3 3 3 3 3 4 5
Wind_Direction
277 278 287 295 292 295 306 303 303 303 298 289 282 280 293 313 305 311 334 319 303 348 93 129 194 47 44 30 1 337 334 335 345 12 27 36 77 95 99 92 99 167 189 202 192 184 177 179 192 210 199 188 195 199 198 201 200 191 191 195 199 203 203 203 210 216 215 218 222 226 233 236 234 233 233 233 232 232 237 241 244 247 248 248 247 242 241
299 302 300 295 292 292 291 290 292 294 288 284 286 286 303 321 297 316 336 313 314 15 84 121 89 87 84 61 6 349 1 360 8 29 35 43 58 69 80 84 82 91 99 76 144 142 144 156 171 206 222 205 208 204 195 200 203 200 204 206 206 209 211 208 212 221 226 223 224 233 242 242 238 237 237 239 240 238 240 244 250 250 246 252 258 249 240
294 284 272 273 281 291 287 282 288 293 293 294 292 288 299 302 293 314 327 301 315 39 40 65 77 83 90 85 43 14 26 23 29 38 36 42 53 58 67 71 67 75 92 92 93 106 115 142 164 187 202 207 223 227 209 209 211 214 219 221 222 225 224 219 216 222 230 230 229 236 245 246 245 243 241 243 244 244 244 245 250 251 249 256 262 246 237
272 275 274 274 281 292 289 283 283 287 297 304 295 287 297 306 304 308 305 295 351 46 11 30 81 81 82 85 73 56 51 44 45 45 37 43 56 65 71 65 50 52 79 92 96 107 121 146 173 188 194 197 208 219 216 212 214 221 225 224 225 229 233 233 227 225 229 231 232 239 245 251 253 250 248 249 248 247 246 246 249 251 253 259 259 245 242
290 286 288 290 290 287 281 291 311 317 306 298 290 293 297 287 282 287 299 336 75 33 322 309 53 72 79 70 61 72 72 64 64 57 47 57 64 69 74 65 46 33 50 72 82 92 104 121 150 179 196 202 206 209 209 204 206 214 221 225 229 232 236 237 236 235 237 238 239 241 244 249 253 252 251 251 250 250 249 249 249 250 253 256 251 245 246
291 292 295 289 281 283 288 320 314 291 287 293 297 300 295 292 314 55 71 100 133 149 326 351 75 80 89 78 71 89 94 80 78 73 66 81 77 70 70 66 49 29 32 47 63 79 87 83 89 148 189 202 213 217 217 215 213 213 218 226 235 240 242 244 247 250 253 253 252 250 249 251 253 253 252 250 250 250 249 248 247 247 248 249 247 245 248
270 284 290 278 271 312 357 292 279 284 295 299 293 296 321 341 9 64 75 66 96 83 22 74 123 119 97 88 81 86 88 79 80 81 66 70 71 67 65 64 56 42 38 38 43 56 72 76 77 147 178 158 167 205 220 221 218 214 217 223 230 236 240 241 243 248 253 256 258 257 253 251 252 253 254 254 254 253 251 249 248 245 243 244 246 248 251
278 269 269 270 285 330 301 264 260 295 302 302 295 299 359 11 6 38 53 43 72 78 55 108 132 127 100 90 79 74 77 72 74 77 65 62 66 67 65 63 56 47 45 44 41 41 48 62 120 155 166 161 159 174 195 199 197 201 207 216 225 231 236 238 239 242 248 256 259 258 253 251 253 254 253 252 253 253 251 249 248 247 242 240 243 245 249
277 278 274 273 285 297 290 281 12 28 312 327 338 322 14 34 25 30 38 32 61 79 100 110 119 123 92 83 72 65 71 73 75 77 73 68 69 70 72 69 60 51 48 49 44 43 52 62 87 120 144 174 175 180 191 193 194 200 202 207 216 223 225 228 237 242 246 253 257 260 260 258 257 258 256 253 253 253 251 247 245 244 239 235 237 241 244
266 276 279 279 281 285 303 38 35 352 317 337 358 323 22 42 37 36 41 46 81 83 65 87 101 125 61 73 73 58 65 82 93 87 80 77 75 71 71 72 70 63 57 54 51 49 53 54 59 81 126 192 196 187 175 179 198 203 210 220 230 236 232 229 242 252 253 255 257 260 264 264 261 261 260 257 255 254 251 245 239 237 234 231 234 237 238
272 277 280 279 276 287 9 102 263 308 321 334 331 301 332 30 13 27 60 135 141 56 42 69 98 199 252 87 81 61 69 91 102 97 87 82 75 71 71 71 70 64 57 55 54 52 49 47 49 60 72 82 91 83 79 88 99 93 80 44 348 294 275 264 261 262 262 262 259 258 262 262 261 262 261 262 263 257 249 240 232 231 233 231 231 231 231
252 258 270 277 272 297 87 118 242 342 2 342 303 287 332 34 352 11 28 41 121 75 58 72 115 201 161 130 110 86 89 96 93 100 116 101 80 76 85 81 73 70 66 61 55 51 54 58 61 64 69 74 78 77 78 81 80 74 66 54 44 29 5 337 297 273 266 265 261 261 268 271 272 273 272 278 281 259 239 230 225 223 224 225 226 226 229
245 239 251 264 264 70 67 67 33 11 353 327 304 292 109 67 301 0 21 26 104 116 120 115 123 137 136 134 129 113 109 102 86 97 134 112 82 77 92 86 75 77 78 71 57 51 61 72 75 76 78 81 79 76 75 75 72 66 63 58 54 49 45 45 49 56 48 336 307 298 296 296 293 293 295 302 300 255 226 219 217 214 213 217 223 226 228
252 252 264 270 278 47 32 47 64 33 329 304 320 135 144 185 262 338 33 51 100 117 133 120 121 132 136 136 133 121 118 120 108 108 119 107 84 80 92 90 82 81 81 78 70 63 66 73 76 78 79 79 78 75 73 71 69 67 65 64 63 60 58 59 61 65 67 62 53 45 25 10 1 354 348 339 323 268 218 207 204 205 206 212 220 226 227
251 250 266 279 296 40 25 34 67 40 5 350 115 113 124 182 246 242 172 78 100 118 126 120 123 131 134 133 126 116 121 124 107 101 106 106 100 99 99 94 91 88 85 84 80 74 70 70 71 74 76 77 77 75 74 75 77 78 76 73 72 71 68 67 65 63 62 57 50 47 43 34 30 35 35 28 33 91 181 194 193 193 195 202 213 220 219
276 260 262 264 154 88 0 336 66 79 57 65 105 107 125 206 234 163 78 64 107 130 136 135 135 132 131 132 113 95 102 107 96 98 105 106 107 108 104 99 99 98 96 94 89 81 74 70 68 68 69 71 73 72 72 77 82 85 84 81 79 78 75 73 71 67 65 62 58 54 52 49 48 52 58 60 61 62 59 50 66 153 186 202 209 212 212
287 297 307 153 156 182 245 70 98 96 67 78 105 117 149 203 167 99 104 111 125 139 146 144 140 129 122 125 119 106 105 102 92 91 97 101 104 104 102 102 103 103 102 102 98 86 72 67 68 67 63 66 70 70 68 69 71 76 83 85 84 83 81 78 77 76 76 74 73 71 68 66 67 68 68 69 66 61 58 58 58 61 65 75 127 157 166
276 285 264 232 133 119 318 73 80 74 71 99 115 126 161 177 126 104 127 130 134 144 145 139 136 131 126 127 130 131 123 109 98 91 92 103 113 111 109 110 107 103 98 97 97 90 75 68 68 67 62 61 61 61 60 61 62 63 67 72 78 81 81 81 82 83 83 79 77 78 80 78 79 80 78 76 77 75 72 71 69 67 68 68 64 60 53
262 252 236 332 41 52 23 69 91 97 96 110 123 130 155 168 148 121 127 131 134 138 137 135 137 138 133 128 130 135 131 121 115 107 97 102 110 109 109 109 105 100 96 94 93 88 82 78 72 67 66 66 65 65 64 63 61 59 57 57 59 63 68 73 76 77 76 73 69 70 73 74 73 76 78 77 76 78 80 80 75 67 61 59 59 59 51
251 230 143 108 89 67 23 70 121 122 109 110 128 146 159 157 133 120 127 131 131 131 133 139 143 142 137 130 130 137 139 134 129 122 110 108 109 108 109 109 107 103 100 98 94 88 84 85 82 77 75 74 73 72 67 59 53 49 47 47 46 46 47 52 57 61 63 66 65 63 64 67 70 71 74 73 71 70 70 72 71 66 58 50 49 51 48
257 252 182 167 178 88 50 68 120 123 117 127 155 153 147 135 120 121 128 131 134 136 136 141 146 148 146 142 140 144 147 141 133 128 124 123 120 115 112 111 110 108 103 98 96 91 87 85 84 82 80 75 71 65 59 57 56 52 50 52 49 46 45 47 48 49 49 52 57 59 59 62 65 66 66 65 63 64 64 59 57 57 53 46 45 45 45
260 262 131 159 166 101 93 108 120 122 127 142 143 139 140 133 125 128 130 131 137 140 138 141 146 149 151 152 151 152 150 141 132 128 127 125 121 117 114 111 108 108 105 101 97 93 88 85 82 79 77 76 74 67 61 64 71 72 72 72 67 64 68 68 62 54 46 46 51 55 57 58 59 59 60 60 58 59 62 61 57 55 52 49 50 49 48
134 117 140 134 103 111 143 138 124 129 141 144 140 145 149 139 132 135 137 140 141 139 139 143 145 147 152 154 151 147 143 139 137 135 134 131 127 120 115 112 110 108 105 102 98 95 92 90 85 80 75 70 67 67 67 71 73 68 62 59 60 64 73 77 69 59 50 48 52 57 58 58 58 57 55 57 57 56 58 58 56 55 55 51 50 52 52
73 89 139 135 119 124 142 138 134 142 146 141 145 155 153 142 139 138 138 142 140 135 137 143 145 147 149 148 144 141 140 142 145 143 140 138 134 127 121 116 114 111 108 105 101 97 93 88 83 79 74 67 61 58 59 70 83 81 70 58 55 55 57 60 59 54 48 44 44 48 47 46 50 52 48 50 53 53 52 54 53 51 54 56 56 57 56
82 67 88 116 126 130 131 132 141 147 142 142 154 159 154 152 150 142 138 141 141 138 137 140 144 147 147 145 147 150 148 146 145 141 136 131 126 124 123 119 114 109 106 104 100 98 95 89 83 78 71 65 61 54 50 56 71 81 73 61 51 48 47 46 44 44 45 42 39 41 40 39 42 41 35 38 44 42 39 40 42 44 49 51 52 55 55
136 126 120 118 120 129 132 132 140 146 142 144 152 155 156 157 154 148 145 144 143 143 139 136 139 144 146 149 153 150 141 131 126 128 128 120 114 115 116 112 109 107 105 103 100 99 100 98 97 92 79 66 56 45 44 53 58 56 49 38 32 36 46 49 45 43 44 41 36 37 44 50 46 24 14 27 38 37 27 18 18 29 40 40 39 45 49
246 172 140 124 123 140 149 143 145 151 150 149 152 155 157 156 153 152 151 149 148 148 142 138 142 143 143 149 149 136 124 120 117 118 117 110 104 104 103 102 103 103 103 102 100 98 96 93 94 93 88 83 76 57 41 44 51 53 47 24 18 29 45 51 45 35 30 34 30 21 30 60 60 19 2 16 29 30 18 1 358 13 26 26 22 28 37
244 214 190 157 149 158 160 147 148 152 151 152 156 157 156 157 157 156 154 152 154 153 146 148 154 149 143 147 145 128 121 123 117 109 103 96 93 95 97 100 102 100 98 98 98 97 96 92 86 78 78 100 109 88 61 49 41 38 55 51 30 31 61 76 58 27 8 12 18 11 17 52 59 17 358 8 10 3 5 3 352 355 3 6 8 15 28
227 215 210 164 153 156 151 143 148 153 153 158 160 157 158 163 163 163 161 155 152 153 153 156 158 151 146 152 156 147 139 132 120 109 102 99 103 106 103 104 107 105 102 99 98 102 107 105 98 82 70 78 96 90 82 82 56 29 38 56 23 341 275 140 99 42 11 2 1 9 21 47 54 25 5 0 353 340 343 353 340 323 328 338 349 3 14
218 205 169 139 143 153 149 145 153 158 156 161 163 159 162 168 166 167 169 160 149 153 163 165 160 153 153 157 159 155 144 131 123 123 124 125 124 115 103 104 110 108 105 102 101 110 124 125 137 122 90 75 64 49 69 105 73 37 24 32 348 317 308 314 288 257 345 358 344 353 9 14 13 9 351 337 335 323 315 325 326 312 313 319 329 342 350
213 209 176 146 144 151 149 149 159 163 160 163 166 164 167 174 171 169 171 163 154 158 171 171 163 159 161 157 145 139 136 130 131 140 141 134 131 131 135 142 132 114 106 104 100 102 102 64 41 109 121 102 68 42 35 110 94 49 26 33 7 340 340 356 344 284 296 338 323 327 339 331 324 326 320 320 326 320 309 309 308 307 312 312 309 308 309
204 220 204 160 150 152 155 157 163 167 165 167 170 170 174 178 174 171 168 162 159 166 173 169 162 162 163 153 139 135 139 140 143 143 132 122 125 134 146 158 157 142 131 125 113 102 81 35 26 32 44 124 96 48 16 136 110 57 27 52 36 357 351 6 7 335 324 340 334 320 319 315 309 308 307 311 320 321 314 310 308 308 308 302 289 278 285
196 214 226 187 159 155 161 166 169 171 171 172 173 174 176 177 175 172 167 159 159 168 172 168 164 164 162 153 143 142 145 144 140 134 128 128 128 126 130 150 165 156 136 123 103 80 63 60 65 51 26 26 77 16 315 245 147 69 21 351 46 11 2 357 354 356 359 352 341 326 321 321 318 312 307 310 317 313 303 301 311 316 315 312 302 288 288
198 203 218 207 176 165 169 175 176 174 172 173 174 174 173 170 168 169 166 160 160 167 169 163 158 157 155 151 148 147 145 141 135 132 130 129 126 126 130 145 149 134 123 116 108 103 106 117 140 115 51 39 16 327 308 261 185 191 325 8 44 21 9 355 351 0 358 335 327 334 343 337 321 301 292 296 313 316 307 304 313 315 315 318 315 303 300
209 210 216 211 194 182 178 179 182 182 176 173 174 176 176 171 165 162 160 158 158 161 161 156 152 151 151 152 152 150 148 143 138 135 129 120 118 121 109 82 87 105 118 121 126 183 226 243 285 293 49 59 22 322 311 333 194 244 332 66 52 14 355 354 354 355 354 345 342 347 340 316 293 284 287 291 303 314 312 310 312 308 303 306 306 300 302
213 217 215 209 211 208 184 172 179 189 186 177 173 175 177 176 172 168 164 158 155 156 156 154 152 153 154 154 155 154 151 145 138 135 131 128 128 126 107 102 114 119 117 119 121 287 277 285 311 314 347 65 21 315 313 338 12 98 77 60 37 359 351 2 0 354 354 355 350 340 329 317 305 307 316 314 309 309 307 305 307 307 303 306 309 308 311
209 208 204 202 210 212 193 175 179 191 191 183 176 171 170 172 176 176 168 158 154 157 157 154 154 155 155 156 157 154 149 145 144 142 138 135 134 136 136 143 155 167 169 157 165 248 271 282 305 326 18 82 331 312 325 336 359 104 78 42 14 1 6 3 357 358 358 349 344 341 340 339 336 332 328 320 314 315 315 314 318 319 315 314 315 315 317
196 199 203 201 201 204 196 186 185 192 192 185 177 171 168 167 171 171 164 156 157 160 158 155 156 155 153 154 154 148 144 145 147 147 146 142 143 148 150 154 168 180 174 167 179 228 261 275 287 290 227 283 293 306 327 335 20 109 72 33 13 14 15 3 357 1 356 346 346 349 347 345 342 335 328 324 323 324 326 327 329 330 325 319 313 308 306
187 200 214 210 201 194 189 184 185 195 195 183 174 171 170 168 167 164 158 155 160 161 157 156 158 155 150 151 150 144 143 148 149 149 152 150 148 159 171 180 190 192 187 188 209 242 265 272 254 212 321 327 316 281 303 8 89 93 62 32 18 15 14 11 9 6 0 358 1 2 358 353 347 342 341 339 332 326 325 325 328 330 329 323 317 310 302
188 200 214 213 205 196 187 182 184 196 196 182 172 168 168 167 165 161 156 156 161 162 159 160 160 155 153 155 152 148 151 155 152 154 161 161 163 179 189 199 212 215 212 219 242 267 278 255 154 86 345 322 300 237 152 110 101 86 54 24 18 22 21 17 14 11 7 5 4 1 357 354 351 349 348 345 343 344 348 349 346 342 337 331 327 322 312
199 205 210 213 211 206 196 187 181 180 182 179 173 166 164 163 163 161 160 162 164 163 163 164 162 158 158 157 154 154 158 156 152 159 170 171 180 190 193 211 233 242 243 245 262 281 284 212 156 131 301 288 291 101 117 115 99 81 55 18 13 28 20 10 13 17 9 2 3 4 358 353 353 353 349 346 351 1 10 15 11 2 356 353 349 342 336
205 210 209 203 197 192 189 185 176 170 175 179 172 163 161 163 162 161 163 166 166 165 166 165 163 162 159 158 160 165 162 155 160 180 188 194 203 195 188 203 223 240 254 258 268 295 309 227 180 181 214 249 269 105 116 111 89 74 59 20 21 30 18 8 16 14 3 360 7 6 360 357 360 359 357 358 1 5 14 23 20 10 10 14 7 343 331
203 213 210 196 183 175 174 174 169 166 171 176 171 164 163 164 163 163 165 167 167 166 166 166 167 166 162 163 172 174 163 162 185 200 208 221 224 213 208 218 227 238 253 261 280 5 355 245 211 212 242 246 146 129 125 105 77 63 45 16 30 26 9 13 24 9 0 7 13 6 4 10 10 5 7 15 14 9 13 24 20 11 15 26 22 0 340
203 209 204 192 182 176 169 165 165 168 169 170 169 165 163 163 164 165 166 166 166 168 170 171 172 171 169 173 179 176 171 186 204 201 205 229 229 210 211 227 238 247 246 224 132 96 245 245 254 288 300 264 156 139 126 98 73 65 70 61 55 36 20 28 26 9 7 16 15 7 10 16 12 9 14 18 12 3 1 8 7 357 350 3 15 6 352
200 203 198 188 183 181 173 164 165 170 171 169 167 166 164 163 165 166 167 167 169 173 177 179 180 180 180 181 179 176 181 197 199 184 187 208 211 204 212 225 246 268 251 179 142 157 243 245 254 275 273 192 151 137 120 90 65 71 137 112 81 64 48 35 22 20 25 23 18 18 22 17 13 17 19 12 5 5 9 12 7 357 342 330 331 340 340
200 200 196 187 182 182 179 173 170 170 168 165 164 165 165 166 166 166 168 172 177 180 184 186 187 188 189 187 180 180 186 188 182 184 198 205 208 217 224 228 244 261 221 154 149 203 247 245 244 246 197 152 146 139 118 87 68 158 149 124 113 94 60 37 26 31 29 21 19 26 25 15 16 23 22 14 11 17 21 23 21 16 10 7 4 0 359
198 194 190 184 179 179 181 180 177 171 165 161 161 163 163 165 166 168 173 179 183 184 186 188 189 191 194 195 192 192 189 180 175 189 209 215 218 224 226 223 230 235 197 158 168 211 241 234 203 173 150 140 136 125 105 94 182 195 148 125 142 152 92 34 24 21 14 11 16 17 7 359 5 15 14 13 14 13 13 21 24 17 10 12 13 8 6
192 188 182 175 171 171 171 170 169 166 161 158 159 160 161 163 166 170 174 180 183 183 184 188 192 193 198 205 210 207 195 181 177 187 201 213 223 227 224 222 231 238 226 196 194 204 202 175 157 151 146 138 127 117 110 145 202 164 137 140 156 148 115 53 340 283 340 348 346 348 355 6 19 13 354 355 6 7 8 18 19 10 2 6 19 16 11
185 182 179 174 168 163 160 157 156 157 157 156 155 156 159 163 166 168 172 178 180 180 184 190 196 200 207 215 217 208 194 182 182 192 192 188 197 212 217 221 225 219 198 186 204 208 170 153 146 143 143 140 128 118 129 192 190 166 170 211 209 191 191 268 313 247 242 308 353 356 5 19 21 22 15 8 7 6 359 356 1 5 14 33 39 22 15
171 169 171 170 163 155 151 150 151 153 154 155 155 157 161 165 166 168 173 178 178 177 184 192 199 209 217 213 197 189 184 175 172 181 181 178 188 204 206 199 190 173 159 164 200 219 166 150 144 137 131 127 119 123 149 173 173 180 202 216 185 201 203 353 8 320 233 229 338 15 12 349 353 14 31 22 357 354 353 340 336 354 14 31 32 15 6
157 156 159 159 155 151 150 153 156 154 154 159 162 163 163 165 167 169 172 173 170 168 174 182 191 204 207 185 170 176 180 172 167 168 166 171 192 212 200 168 159 152 147 159 194 206 166 155 155 146 128 119 139 191 197 176 153 165 224 219 199 198 242 304 346 339 280 257 271 300 334 345 358 36 44 18 356 1 7 359 345 349 358 3 5 1 354
158 162 160 155 150 148 150 155 158 157 159 165 168 164 159 160 163 163 164 165 163 163 166 170 174 181 180 170 170 178 181 177 174 173 169 175 193 206 190 168 167 161 152 158 181 180 152 162 171 161 144 142 161 268 249 194 167 167 259 231 208 215 285 284 261 241 356 331 269 262 302 306 300 324 339 333 340 356 357 347 343 349 344 338 345 353 347
Height
1491 1485 1485 1484 1483 1487 1491 1492 1493 1492 1492 1492 1495 1499 1499 1500 1509 1511 1502 1500 1504 1503 1504 1505 1503 1505 1506 1506 1510 1512 1510 1508 1504 1500 1499 1498 1496 1494 1492 1493 1495 1496 1498 1498 1496 1498 1501 1503 1508 1511 1509 1511 1514 1516 1516 1517 1515 1514 1515 1517 1519 1522 1524 1525 1527 1528 1530 1531 1532 1532 1533 1535 1536 1538 1539 1540 1541 1541 1542 1543 1544 1545 1546 1546 1547 1547 1548
1492 1488 1489 1487 1484 1486 1490 1492 1491 1490 1490 1489 1491 1494 1495 1498 1503 1504 1503 1504 1504 1504 1504 1502 1503 1507 1505 1505 1510 1512 1511 1510 1507 1503 1502 1500 1498 1496 1494 1494 1496 1497 1499 1498 1496 1497 1500 1502 1506 1510 1512 1514 1516 1515 1513 1513 1513 1512 1514 1517 1519 1522 1523 1524 1526 1527 1528 1530 1531 1531 1532 1533 1534 1535 1536 1538 1538 1539 1540 1541 1542 1543 1544 1545 1546 1546 1546
1498 1491 1489 1487 1485 1486 1490 1491 1491 1490 1489 1488 1490 1493 1494 1497 1499 1499 1502 1504 1504 1505 1505 1503 1505 1508 1505 1504 1509 1511 1510 1510 1508 1505 1504 1502 1500 1498 1495 1494 1497 1498 1498 1498 1498 1499 1501 1503 1506 1510 1514 1515 1515 1514 1512 1512 1513 1514 1515 1518 1521 1523 1523 1524 1525 1525 1526 1528 1530 1530 1531 1532 1533 1533 1534 1535 1536 1537 1538 1539 1540 1541 1542 1543 1545 1544 1544
1501 1490 1487 1487 1483 1485 1492 1492 1490 1491 1493 1493 1493 1493 1493 1496 1500 1501 1503 1506 1507 1505 1505 1507 1508 1508 1507 1505 1506 1509 1509 1509 1509 1507 1506 1504 1502 1499 1495 1494 1497 1499 1499 1499 1500 1502 1504 1506 1508 1512 1513 1513 1513 1513 1512 1512 1514 1515 1517 1519 1521 1523 1523 1523 1523 1524 1525 1527 1530 1531 1531 1531 1531 1532 1533 1533 1534 1535 1536 1537 1538 1539 1540 1541 1543 1543 1543
1500 1490 1487 1486 1486 1494 1501 1495 1490 1491 1493 1494 1493 1492 1491 1492 1495 1501 1505 1508 1508 1504 1505 1509 1510 1509 1509 1506 1506 1509 1510 1510 1510 1508 1507 1505 1503 1500 1495 1492 1497 1501 1500 1499 1502 1503 1505 1507 1509 1511 1511 1512 1512 1513 1514 1515 1516 1517 1517 1518 1520 1521 1521 1522 1522 1522 1524 1528 1531 1531 1530 1529 1529 1530 1531 1531 1532 1533 1533 1535 1536 1537 1538 1539 1540 1541 1542
1505 1494 1486 1489 1499 1510 1505 1491 1486 1489 1491 1492 1494 1493 1491 1489 1490 1496 1501 1503 1504 1503 1505 1510 1512 1511 1510 1508 1508 1510 1510 1510 1510 1510 1510 1506 1502 1500 1495 1492 1498 1503 1501 1501 1503 1504 1506 1508 1508 1509 1510 1511 1512 1513 1515 1516 1517 1517 1517 1517 1518 1519 1519 1520 1521 1522 1524 1527 1528 1528 1527 1528 1527 1527 1528 1529 1530 1530 1531 1532 1533 1534 1536 1537 1538 1540 1541
1502 1494 1493 1506 1516 1508 1494 1485 1483 1485 1486 1487 1490 1491 1490 1490 1492 1495 1498 1500 1502 1504 1506 1511 1513 1512 1511 1511 1511 1510 1510 1510 1510 1510 1510 1506 1500 1497 1495 1496 1501 1504 1502 1503 1504 1504 1505 1507 1507 1508 1509 1509 1510 1511 1513 1514 1515 1515 1516 1516 1517 1517 1517 1519 1521 1522 1524 1525 1525 1525 1525 1526 1525 1525 1526 1527 1528 1529 1529 1530 1530 1531 1533 1535 1536 1537 1539
1498 1497 1503 1514 1510 1492 1484 1484 1482 1483 1487 1488 1490 1494 1493 1492 1495 1497 1498 1500 1501 1503 1507 1512 1515 1513 1512 1512 1512 1512 1512 1511 1510 1510 1510 1506 1501 1497 1497 1499 1502 1503 1503 1503 1504 1504 1505 1505 1506 1506 1506 1507 1507 1508 1509 1510 1511 1512 1513 1514 1514 1514 1515 1517 1518 1520 1521 1521 1522 1522 1523 1523 1523 1523 1524 1525 1526 1526 1526 1527 1527 1528 1530 1532 1533 1534 1536
1500 1501 1501 1500 1497 1493 1490 1487 1483 1486 1490 1489 1492 1499 1499 1496 1497 1499 1500 1501 1502 1504 1507 1512 1516 1516 1515 1514 1514 1513 1512 1511 1511 1510 1509 1508 1505 1502 1501 1502 1503 1505 1506 1505 1504 1505 1505 1505 1505 1504 1504 1505 1504 1505 1505 1506 1507 1508 1510 1511 1511 1512 1513 1514 1515 1516 1516 1517 1519 1520 1520 1521 1521 1521 1522 1522 1522 1521 1522 1523 1524 1526 1527 1528 1529 1531 1533
1497 1501 1503 1502 1507 1508 1497 1488 1486 1486 1487 1487 1489 1496 1502 1502 1500 1501 1502 1502 1503 1504 1506 1511 1518 1519 1519 1518 1516 1514 1513 1512 1511 1511 1510 1511 1510 1507 1505 1506 1506 1507 1508 1506 1505 1505 1505 1506 1505 1503 1503 1503 1503 1503 1504 1504 1506 1508 1509 1509 1510 1510 1511 1512 1513 1513 1513 1515 1517 1518 1518 1518 1518 1519 1519 1519 1519 1519 1519 1520 1522 1523 1525 1525 1527 1529 1531
1498 1502 1507 1509 1511 1505 1492 1488 1487 1485 1486 1487 1487 1497 1507 1505 1500 1501 1502 1502 1504 1506 1509 1513 1518 1521 1522 1521 1518 1515 1514 1513 1512 1512 1512 1512 1512 1511 1509 1508 1509 1509 1508 1507 1507 1507 1507 1507 1506 1504 1504 1503 1503 1504 1504 1505 1506 1507 1508 1509 1509 1509 1509 1510 1510 1511 1513 1514 1516 1516 1516 1515 1515 1515 1515 1516 1516 1517 1517 1519 1521 1522 1523 1524 1526 1528 1528
1500 1503 1507 1502 1497 1492 1487 1486 1486 1486 1487 1487 1494 1509 1513 1504 1500 1503 1503 1503 1506 1508 1510 1512 1515 1519 1520 1519 1518 1517 1516 1514 1513 1513 1513 1513 1514 1513 1511 1511 1511 1511 1510 1510 1510 1510 1510 1509 1508 1506 1505 1504 1504 1504 1505 1506 1506 1506 1507 1508 1508 1508 1508 1509 1509 1511 1512 1513 1514 1514 1514 1513 1513 1513 1513 1514 1515 1514 1514 1515 1518 1519 1520 1522 1525 1526 1527
1495 1498 1502 1496 1489 1488 1487 1486 1487 1488 1489 1493 1506 1517 1511 1501 1502 1504 1503 1504 1506 1507 1508 1509 1511 1514 1514 1514 1515 1517 1517 1516 1515 1514 1515 1515 1515 1514 1514 1513 1513 1513 1513 1514 1514 1513 1512 1511 1510 1509 1507 1506 1506 1506 1507 1506 1506 1507 1508 1508 1508 1509 1509 1509 1510 1510 1511 1512 1512 1513 1513 1512 1512 1511 1511 1512 1513 1513 1512 1513 1514 1517 1519 1521 1523 1524 1525
1492 1492 1493 1492 1491 1490 1488 1488 1489 1490 1495 1504 1511 1510 1505 1502 1503 1503 1503 1505 1505 1506 1507 1508 1510 1513 1514 1514 1515 1516 1517 1517 1516 1516 1516 1516 1516 1516 1516 1516 1516 1516 1516 1517 1517 1516 1515 1514 1513 1512 1510 1509 1509 1509 1509 1509 1509 1509 1509 1509 1510 1510 1510 1511 1511 1511 1511 1511 1511 1512 1512 1511 1511 1511 1511 1512 1512 1513 1513 1512 1513 1515 1517 1519 1522 1523 1523
1489 1490 1493 1499 1502 1496 1489 1490 1492 1493 1500 1506 1504 1502 1503 1502 1501 1502 1505 1505 1506 1507 1508 1509 1512 1514 1515 1516 1516 1517 1518 1517 1516 1517 1517 1517 1518 1518 1518 1519 1519 1519 1519 1519 1520 1519 1518 1517 1516 1515 1514 1513 1512 1512 1512 1512 1513 1512 1512 1512 1512 1512 1513 1513 1513 1513 1513 1513 1513 1513 1512 1512 1513 1513 1513 1514 1514 1514 1515 1515 1515 1515 1516 1518 1520 1522 1522
1490 1493 1496 1500 1500 1494 1490 1493 1495 1496 1500 1501 1499 1500 1502 1500 1501 1504 1505 1506 1507 1508 1508 1510 1512 1513 1515 1517 1517 1518 1518 1518 1517 1518 1518 1518 1519 1520 1520 1521 1521 1521 1521 1521 1521 1522 1521 1519 1519 1518 1517 1517 1516 1516 1516 1516 1516 1515 1514 1515 1515 1515 1515 1515 1514 1515 1515 1514 1515 1515 1514 1515 1515 1515 1516 1516 1516 1516 1517 1518 1518 1517 1518 1519 1520 1521 1522
1488 1489 1490 1491 1490 1490 1490 1492 1494 1496 1499 1499 1498 1499 1499 1499 1502 1505 1505 1506 1507 1507 1508 1510 1511 1512 1514 1516 1517 1518 1519 1519 1518 1518 1518 1520 1521 1521 1522 1522 1522 1523 1523 1522 1522 1522 1522 1521 1521 1521 1521 1521 1520 1520 1520 1519 1519 1518 1517 1517 1517 1517 1517 1517 1517 1517 1517 1517 1517 1517 1517 1518 1518 1518 1518 1518 1518 1518 1519 1519 1519 1519 1520 1521 1521 1522 1523
1485 1484 1484 1484 1486 1488 1489 1491 1495 1498 1499 1499 1499 1500 1500 1501 1503 1504 1504 1506 1506 1507 1509 1510 1511 1513 1514 1515 1516 1517 1518 1520 1520 1520 1521 1521 1522 1522 1523 1524 1524 1524 1524 1524 1524 1523 1523 1523 1524 1524 1524 1524 1523 1523 1523 1523 1522 1521 1521 1520 1520 1520 1520 1519 1520 1520 1520 1520 1520 1519 1520 1520 1520 1520 1521 1520 1520 1520 1520 1521 1521 1521 1522 1523 1523 1523 1524
1489 1489 1485 1483 1487 1490 1491 1493 1496 1499 1499 1499 1500 1501 1501 1501 1503 1504 1504 1505 1506 1508 1510 1510 1512 1514 1515 1515 1517 1517 1518 1520 1522 1523 1524 1523 1522 1523 1524 1524 1525 1525 1525 1526 1526 1525 1526 1526 1527 1527 1527 1527 1527 1527 1526 1525 1525 1524 1523 1523 1523 1523 1523 1523 1523 1523 1523 1523 1523 1523 1522 1522 1522 1523 1523 1523 1523 1522 1522 1522 1523 1523 1524 1524 1524 1524 1525
1487 1487 1485 1485 1489 1492 1492 1494 1496 1497 1499 1500 1500 1501 1501 1501 1503 1504 1505 1506 1507 1509 1511 1511 1512 1515 1517 1518 1518 1519 1520 1521 1522 1524 1525 1524 1524 1525 1525 1525 1526 1527 1527 1528 1528 1527 1528 1528 1529 1529 1530 1529 1529 1529 1528 1528 1527 1526 1526 1525 1525 1525 1526 1525 1525 1525 1525 1525 1525 1525 1525 1525 1525 1525 1525 1525 1525 1525 1525 1525 1524 1525 1525 1525 1525 1526 1526
1484 1483 1483 1485 1489 1492 1494 1495 1496 1497 1499 1499 1500 1501 1501 1502 1503 1504 1505 1507 1508 1509 1511 1512 1513 1515 1518 1519 1519 1520 1521 1521 1522 1524 1525 1525 1527 1527 1527 1527 1528 1528 1529 1529 1529 1529 1530 1530 1530 1531 1531 1531 1531 1530 1530 1529 1528 1528 1528 1528 1529 1529 1529 1529 1529 1529 1528 1528 1528 1528 1528 1528 1527 1527 1527 1527 1527 1527 1527 1527 1527 1527 1527 1527 1527 1528 1528
1487 1486 1486 1486 1489 1493 1495 1496 1497 1498 1498 1499 1500 1502 1502 1503 1504 1505 1506 1508 1509 1510 1511 1512 1514 1516 1518 1519 1520 1521 1522 1522 1523 1525 1526 1527 1528 1528 1528 1529 1529 1529 1530 1530 1530 1530 1531 1531 1532 1532 1532 1532 1532 1531 1531 1530 1529 1529 1530 1530 1531 1532 1532 1532 1532 1532 1531 1531 1530 1530 1530 1530 1530 1529 1529 1530 1530 1530 1529 1529 1529 1529 1529 1529 1529 1529 1529
1487 1487 1487 1486 1489 1492 1494 1496 1498 1498 1498 1499 1501 1502 1503 1504 1505 1506 1507 1509 1509 1510 1511 1513 1514 1516 1517 1519 1521 1522 1523 1524 1524 1525 1527 1529 1530 1530 1530 1530 1530 1531 1531 1531 1531 1531 1531 1532 1532 1533 1533 1533 1533 1532 1532 1531 1531 1532 1532 1532 1533 1533 1533 1534 1534 1534 1533 1533 1533 1533 1532 1532 1532 1532 1532 1532 1532 1532 1532 1531 1531 1531 1531 1530 1530 1530 1531
1484 1486 1486 1486 1489 1491 1494 1496 1498 1498 1499 1500 1502 1503 1504 1505 1506 1507 1509 1509 1510 1511 1512 1514 1515 1516 1518 1520 1522 1523 1524 1525 1525 1526 1528 1529 1529 1530 1531 1531 1532 1532 1532 1532 1532 1532 1532 1533 1533 1534 1534 1535 1534 1534 1533 1532 1533 1533 1534 1534 1535 1535 1535 1535 1536 1536 1536 1535 1535 1535 1534 1534 1534 1534 1534 1534 1534 1534 1534 1533 1533 1533 1533 1532 1532 1532 1532
1484 1486 1487 1488 1489 1491 1494 1496 1497 1498 1500 1500 1502 1504 1505 1506 1506 1508 1509 1510 1511 1512 1514 1515 1517 1518 1520 1522 1523 1525 1526 1526 1527 1528 1529 1529 1530 1531 1532 1532 1533 1533 1533 1533 1533 1533 1534 1534 1535 1535 1536 1536 1536 1536 1535 1534 1535 1535 1535 1536 1536 1537 1537 1537 1537 1537 1538 1537 1537 1537 1537 1537 1537 1536 1536 1536 1536 1535 1535 1535 1535 1535 1535 1534 1534 1534 1534
1485 1487 1489 1490 1491 1492 1494 1496 1497 1498 1499 1500 1502 1504 1506 1506 1507 1508 1509 1511 1512 1513 1515 1517 1518 1520 1522 1523 1525 1526 1527 1528 1528 1529 1531 1532 1532 1533 1534 1534 1534 1534 1534 1534 1534 1534 1535 1535 1536 1536 1537 1537 1537 1537 1536 1536 1537 1537 1538 1538 1538 1538 1538 1538 1539 1539 1539 1539 1539 1539 1539 1539 1539 1538 1538 1538 1537 1537 1536 1536 1536 1537 1536 1536 1536 1535 1535
1486 1487 1489 1490 1491 1493 1494 1495 1496 1497 1499 1500 1502 1504 1505 1506 1507 1508 1510 1512 1513 1515 1517 1518 1519 1521 1523 1524 1526 1527 1529 1530 1530 1531 1533 1534 1534 1535 1536 1535 1535 1535 1535 1535 1535 1536 1536 1536 1536 1537 1537 1537 1538 1538 1538 1538 1539 1539 1539 1539 1539 1539 1539 1539 1540 1540 1540 1540 1540 1540 1539 1540 1540 1540 1540 1539 1539 1539 1539 1538 1538 1538 1538 1538 1537 1537 1537
1487 1487 1487 1488 1489 1492 1493 1495 1496 1497 1498 1500 1502 1503 1504 1506 1507 1509 1510 1512 1514 1516 1517 1518 1519 1521 1523 1525 1527 1528 1529 1530 1531 1532 1533 1534 1535 1536 1537 1537 1536 1536 1536 1536 1537 1537 1537 1537 1537 1537 1537 1537 1538 1538 1539 1540 1540 1540 1540 1540 1540 1540 1540 1540 1541 1541 1540 1541 1541 1541 1540 1540 1541 1541 1541 1540 1540 1541 1541 1540 1539 1539 1539 1539 1539 1538 1538
1487 1487 1487 1486 1487 1490 1492 1495 1496 1498 1499 1500 1502 1503 1504 1506 1507 1509 1511 1512 1514 1516 1517 1519 1520 1522 1523 1525 1527 1527 1528 1529 1531 1533 1534 1535 1536 1537 1537 1537 1537 1537 1537 1537 1538 1538 1537 1537 1537 1537 1537 1538 1538 1538 1539 1539 1540 1540 1540 1540 1540 1540 1540 1540 1541 1541 1541 1541 1541 1541 1541 1541 1541 1542 1542 1542 1542 1542 1541 1541 1541 1540 1540 1540 1540 1539 1539
1486 1487 1487 1487 1488 1490 1492 1494 1496 1498 1499 1500 1501 1503 1504 1506 1507 1509 1511 1513 1515 1517 1517 1519 1521 1523 1524 1525 1526 1527 1528 1529 1531 1534 1536 1536 1536 1537 1538 1538 1537 1537 1537 1538 1538 1538 1537 1537 1536 1537 1538 1538 1539 1539 1538 1539 1540 1541 1541 1541 1540 1540 1540 1541 1541 1541 1541 1542 1542 1542 1542 1541 1542 1542 1542 1542 1542 1542 1542 1542 1541 1541 1540 1540 1539 1539 1539
1484 1486 1487 1487 1489 1490 1492 1494 1496 1497 1498 1500 1501 1502 1503 1505 1507 1509 1510 1512 1515 1517 1517 1519 1521 1523 1524 1525 1527 1528 1530 1531 1533 1535 1535 1535 1536 1537 1537 1538 1537 1537 1538 1538 1538 1538 1537 1536 1536 1537 1537 1538 1538 1538 1538 1538 1539 1540 1540 1541 1540 1540 1540 1540 1540 1540 1541 1541 1541 1542 1542 1542 1542 1542 1542 1542 1542 1542 1542 1541 1541 1541 1541 1540 1539 1539 1539
1483 1484 1485 1487 1488 1490 1491 1493 1495 1496 1498 1499 1500 1501 1502 1504 1506 1508 1510 1512 1515 1516 1517 1519 1522 1523 1524 1526 1528 1529 1531 1532 1534 1534 1535 1535 1536 1536 1537 1537 1537 1538 1538 1538 1538 1538 1537 1536 1536 1537 1537 1537 1538 1538 1537 1538 1538 1539 1540 1540 1540 1541 1540 1540 1540 1540 1540 1540 1541 1541 1542 1542 1542 1541 1541 1541 1541 1541 1541 1541 1541 1540 1540 1540 1540 1539 1538
1481 1482 1484 1486 1487 1488 1490 1491 1494 1495 1497 1498 1499 1500 1501 1503 1505 1506 1509 1511 1514 1515 1516 1518 1521 1523 1524 1526 1528 1530 1531 1532 1533 1534 1535 1535 1536 1536 1537 1537 1537 1538 1538 1538 1538 1538 1537 1536 1536 1536 1536 1537 1537 1537 1537 1537 1537 1538 1539 1539 1540 1540 1540 1540 1540 1540 1540 1541 1541 1541 1541 1541 1541 1541 1541 1541 1541 1540 1540 1540 1540 1540 1539 1539 1539 1538 1538
1480 1482 1484 1484 1485 1486 1487 1489 1492 1494 1496 1497 1499 1500 1501 1503 1504 1506 1508 1510 1512 1514 1516 1518 1520 1522 1524 1526 1528 1530 1531 1532 1533 1534 1534 1535 1535 1536 1536 1537 1537 1537 1538 1538 1538 1537 1536 1536 1536 1536 1536 1537 1537 1536 1536 1536 1537 1537 1538 1538 1539 1540 1540 1540 1540 1540 1540 1540 1540 1540 1540 1540 1540 1540 1540 1540 1540 1540 1539 1539 1539 1539 1539 1539 1538 1538 1538
1479 1482 1483 1484 1484 1485 1486 1487 1490 1493 1494 1496 1497 1498 1500 1502 1503 1505 1507 1510 1512 1513 1515 1518 1520 1522 1524 1526 1528 1530 1531 1532 1533 1534 1534 1535 1535 1535 1536 1536 1536 1536 1537 1537 1537 1536 1536 1536 1536 1536 1536 1537 1537 1536 1536 1536 1537 1537 1537 1538 1539 1540 1540 1540 1540 1540 1540 1540 1539 1540 1540 1540 1539 1539 1539 1539 1539 1540 1539 1539 1539 1539 1539 1539 1538 1537 1537
1479 1481 1482 1483 1484 1486 1486 1487 1490 1492 1493 1494 1496 1497 1498 1500 1502 1504 1506 1509 1512 1514 1516 1518 1520 1522 1524 1526 1528 1529 1531 1532 1533 1533 1534 1534 1535 1535 1535 1536 1536 1536 1537 1537 1536 1535 1535 1536 1536 1536 1537 1538 1538 1537 1536 1536 1537 1537 1538 1538 1539 1540 1540 1540 1540 1540 1540 1539 1539 1539 1539 1539 1539 1539 1539 1539 1539 1539 1539 1539 1539 1538 1538 1538 1538 1536 1536
1478 1479 1480 1482 1483 1484 1485 1486 1489 1492 1494 1494 1494 1496 1497 1498 1500 1503 1506 1509 1511 1514 1516 1518 1520 1522 1524 1526 1527 1529 1530 1531 1532 1533 1533 1534 1535 1535 1535 1536 1537 1537 1537 1537 1536 1535 1535 1535 1536 1537 1537 1538 1538 1537 1536 1536 1536 1537 1538 1539 1539 1540 1540 1540 1540 1540 1540 1539 1539 1539 1539 1539 1539 1539 1539 1539 1539 1538 1538 1538 1538 1537 1537 1537 1537 1536 1536
1475 1477 1478 1480 1481 1482 1482 1484 1488 1493 1496 1494 1493 1494 1496 1497 1499 1502 1505 1509 1511 1513 1516 1518 1520 1522 1524 1526 1527 1528 1529 1531 1532 1533 1533 1534 1534 1534 1535 1536 1536 1536 1536 1536 1536 1535 1535 1536 1536 1537 1537 1537 1537 1536 1536 1536 1536 1536 1537 1538 1539 1539 1539 1540 1540 1540 1539 1539 1539 1539 1539 1539 1539 1539 1539 1538 1538 1538 1537 1537 1536 1536 1536 1536 1536 1536 1536
1472 1474 1476 1478 1478 1479 1480 1482 1486 1492 1496 1495 1493 1494 1496 1497 1499 1502 1505 1508 1511 1513 1516 1518 1520 1521 1524 1525 1527 1528 1529 1530 1531 1532 1532 1533 1534 1534 1534 1535 1534 1534 1535 1535 1534 1534 1535 1535 1536 1536 1536 1536 1536 1536 1535 1536 1536 1536 1537 1538 1539 1539 1539 1540 1540 1540 1540 1540 1539 1539 1539 1539 1539 1538 1539 1538 1538 1538 1537 1536 1536 1536 1536 1536 1536 1535 1535
1470 1472 1474 1476 1477 1478 1479 1480 1484 1490 1496 1496 1493 1493 1495 1496 1498 1501 1504 1507 1510 1513 1515 1517 1519 1521 1523 1525 1526 1527 1529 1530 1531 1531 1532 1532 1533 1533 1534 1534 1534 1534 1534 1534 1534 1534 1535 1535 1536 1536 1536 1536 1535 1535 1535 1536 1536 1536 1537 1538 1539 1539 1539 1540 1540 1540 1540 1539 1539 1539 1539 1539 1539 1538 1538 1538 1537 1536 1536 1535 1535 1535 1535 1535 1535 1534 1534
1469 1472 1474 1475 1475 1476 1478 1480 1482 1488 1494 1496 1494 1492 1493 1495 1497 1499 1502 1506 1509 1512 1515 1517 1519 1521 1522 1524 1525 1526 1528 1529 1530 1530 1531 1531 1532 1533 1533 1533 1532 1533 1534 1534 1534 1534 1535 1535 1535 1536 1536 1535 1535 1535 1536 1536 1536 1536 1537 1538 1538 1539 1539 1539 1539 1539 1539 1539 1539 1539 1539 1539 1538 1538 1537 1536 1536 1536 1535 1535 1535 1535 1535 1535 1534 1533 1532
1469 1473 1474 1475 1475 1475 1477 1479 1481 1486 1493 1496 1495 1493 1493 1494 1496 1499 1502 1505 1509 1512 1514 1516 1518 1520 1522 1523 1524 1525 1527 1528 1529 1529 1530 1530 1531 1532 1532 1531 1531 1531 1532 1533 1534 1534 1534 1535 1535 1535 1534 1535 1535 1535 1535 1536 1536 1536 1538 1538 1539 1539 1539 1539 1539 1540 1540 1539 1539 1539 1539 1538 1538 1538 1537 1537 1536 1536 1535 1535 1534 1535 1535 1535 1533 1532 1531
1470 1473 1474 1474 1473 1473 1475 1477 1480 1483 1489 1494 1496 1495 1494 1495 1497 1499 1502 1505 1508 1511 1513 1515 1517 1519 1521 1522 1523 1525 1526 1527 1528 1528 1529 1529 1530 1531 1531 1530 1530 1531 1532 1533 1533 1534 1534 1534 1534 1534 1534 1534 1535 1535 1535 1536 1536 1537 1538 1538 1539 1539 1539 1539 1539 1540 1539 1539 1539 1539 1538 1538 1538 1538 1537 1537 1536 1535 1534 1535 1535 1535 1534 1533 1532 1531 1531
1469 1472 1472 1471 1470 1471 1473 1476 1479 1481 1485 1490 1494 1495 1495 1495 1497 1499 1501 1504 1507 1510 1512 1514 1516 1518 1520 1521 1522 1524 1525 1526 1527 1528 1529 1529 1529 1530 1530 1530 1530 1531 1532 1532 1533 1534 1534 1533 1533 1534 1534 1534 1534 1535 1536 1536 1537 1537 1538 1538 1539 1539 1539 1539 1539 1539 1539 1539 1539 1539 1538 1538 1538 1537 1537 1536 1536 1535 1534 1534 1535 1534 1533 1533 1532 1531 1531
1468 1470 1469 1468 1469 1470 1472 1473 1476 1479 1482 1486 1490 1492 1493 1494 1496 1499 1501 1503 1506 1508 1510 1513 1515 1517 1519 1520 1522 1524 1525 1525 1526 1527 1528 1528 1529 1529 1529 1529 1529 1530 1531 1532 1532 1533 1533 1532 1533 1533 1533 1533 1534 1535 1536 1536 1537 1537 1538 1538 1539 1539 1539 1539 1539 1539 1539 1539 1539 1538 1538 1538 1538 1537 1537 1536 1536 1535 1535 1535 1534 1533 1533 1532 1532 1531 1530
1465 1467 1467 1466 1467 1469 1470 1472 1475 1479 1482 1484 1487 1490 1492 1494 1496 1498 1501 1503 1505 1507 1510 1512 1514 1516 1518 1520 1521 1523 1524 1525 1526 1526 1527 1527 1527 1527 1527 1528 1529 1529 1530 1531 1532 1532 1531 1532 1532 1533 1533 1533 1534 1535 1536 1537 1537 1538 1538 1538 1539 1539 1539 1539 1539 1539 1539 1539 1538 1538 1538 1538 1538 1537 1537 1536 1536 1535 1535 1535 1534 1533 1533 1532 1531 1530 1530
1463 1464 1464 1464 1465 1467 1470 1473 1477 1479 1481 1482 1484 1488 1491 1493 1496 1498 1500 1502 1504 1507 1509 1511 1513 1515 1517 1518 1520 1521 1522 1524 1525 1525 1525 1525 1525 1526 1527 1527 1528 1528 1529 1530 1530 1530 1531 1531 1531 1532 1533 1534 1535 1535 1536 1537 1538 1538 1538 1538 1538 1538 1539 1539 1538 1538 1539 1538 1538 1538 1538 1538 1537 1537 1537 1537 1536 1536 1535 1534 1534 1534 1533 1533 1532 1531 1530
1461 1461 1462 1463 1464 1466 1470 1473 1476 1478 1479 1481 1483 1487 1490 1493 1495 1497 1500 1502 1504 1506 1508 1510 1512 1514 1516 1517 1519 1520 1521 1522 1523 1524 1523 1524 1524 1524 1525 1526 1526 1527 1528 1529 1529 1530 1530 1531 1531 1532 1533 1534 1534 1535 1536 1537 1538 1537 1537 1538 1538 1538 1538 1538 1538 1538 1538 1538 1538 1538 1538 1537 1537 1536 1537 1536 1536 1536 1535 1534 1534 1534 1533 1533 1532 1532 1531
1460 1459 1461 1463 1465 1466 1468 1472 1474 1477 1479 1482 1484 1487 1490 1492 1494 1497 1499 1501 1503 1506 1507 1509 1511 1513 1515 1516 1517 1518 1519 1520 1521 1522 1522 1523 1523 1523 1523 1524 1525 1526 1528 1529 1529 1530 1530 1531 1531 1532 1533 1534 1534 1535 1536 1537 1537 1537 1537 1538 1537 1537 1537 1537 1537 1537 1537 1538 1537 1537 1537 1536 1536 1536 1536 1536 1536 1535 1535 1535 1534 1534 1533 1533 1533 1533 1532
1460 1461 1463 1465 1466 1467 1469 1472 1474 1477 1480 1482 1484 1487 1489 1491 1494 1496 1499 1501 1503 1505 1507 1508 1510 1512 1513 1515 1516 1517 1518 1519 1520 1520 1521 1522 1522 1522 1522 1523 1524 1526 1527 1528 1529 1530 1530 1531 1532 1532 1533 1534 1535 1535 1536 1536 1536 1536 1537 1537 1537 1536 1536 1537 1537 1536 1536 1537 1537 1536 1536 1536 1536 1536 1536 1535 1535 1535 1535 1535 1534 1534 1534 1533 1533 1533 1532
1462 1464 1465 1465 1465 1466 1469 1471 1473 1476 1479 1481 1484 1486 1489 1491 1493 1496 1498 1500 1503 1504 1506 1508 1509 1511 1512 1513 1515 1516 1517 1518 1519 1520 1521 1521 1521 1521 1522 1523 1524 1525 1526 1528 1529 1529 1530 1531 1532 1532 1533 1534 1535 1535 1535 1535 1536 1536 1536 1536 1536 1536 1536 1536 1536 1536 1536 1536 1536 1536 1536 1536 1535 1535 1535 1535 1535 1534 1534 1534 1534 1534 1534 1533 1533 1533 1532
1462 1463 1464 1464 1465 1467 1469 1471 1473 1475 1478 1481 1484 1487 1489 1491 1494 1496 1498 1501 1503 1504 1506 1507 1508 1510 1511 1513 1514 1514 1515 1516 1517 1518 1520 1520 1521 1521 1522 1523 1524 1525 1526 1528 1529 1529 1530 1531 1532 1532 1532 1533 1534 1534 1534 1534 1535 1535 1535 1535 1535 1536 1535 1535 1535 1535 1535 1535 1535 1535 1535 1535 1535 1535 1535 1535 1535 1535 1535 1534 1534 1534 1534 1533 1532 1532 1532